Flag for U.S.A. Weather past 2 weeks in Cape Coral, Florida, U.S.A.

Now
68 °F

Clear.


Feels Like: 68 °F
Forecast: 67 / 84 °F
Wind: 5 mph from Northeast

Location: Page Field

Current Time: Oct 20, 2014 at 8:27:01 AM

Latest Report: Oct 20, 2014 at 7:53 AM


Visibility: 10 mi

Pressure: 30.01 "Hg

Humidity: 90%

Dew point: 65 °F

Location of Cape CoralLocation

Historic Weather in Cape Coral — Graph

°F

Cape Coral temperature yesterday

Maximum temperature yesterday: 85 °F (at 2:53 PM)
Minimum temperature yesterday: 64 °F (at 7:53 AM)
Average temperature yesterday: 75 °F

Past Weeks' High & Low Weather Summary

 TemperatureHumidityPressure
High91 °F (Oct 11, 3:53 PM)97% (Oct 8, 3:53 AM)30.12 "Hg (Oct 8, 3:53 AM)
Low61 °F (Oct 5, 7:53 AM)34% (Oct 9, 2:53 PM)29.90 "Hg (Oct 16, 5:53 PM)
Average76 °F75%30.00 "Hg
* Reported Oct 5 6:53 AM — Oct 20 6:53 AM, Cape Coral, Weather by CustomWeather, © 2014

Note: Actual official high and low records may vary slightly from our data, if they occured in-between our weather recording intervals... More about our weather records

Advertising

Cape Coral weather history for previous 24 hours

 ConditionsComfort  
Time TempWeatherWind HumidityBarometerVisibility
6:53 AM
Oct 20
68 °FPassing clouds.5 mph90%30.01 "Hg10 mi
5:53 AM67 °FPassing clouds.No wind93%30.00 "Hg10 mi
4:53 AM67 °FClear.No wind93%29.99 "Hg10 mi
3:53 AM68 °FClear.5 mph90%29.99 "Hg10 mi
2:53 AM68 °FClear.3 mph90%30.00 "Hg10 mi
1:53 AM69 °FClear.No wind87%30.01 "Hg10 mi
12:53 AM71 °FClear.3 mph81%30.01 "Hg10 mi
10:53 PM
Oct 19
72 °FClear.7 mph71%30.03 "Hg10 mi
9:53 PM73 °FClear.6 mph69%30.01 "Hg10 mi
8:53 PM74 °FClear.5 mph67%30.00 "Hg10 mi
7:53 PM76 °FSunny.5 mph60%29.98 "Hg10 mi
6:53 PM79 °FSunny.6 mph54%29.96 "Hg10 mi
5:53 PM83 °FSunny.8 mph44%29.95 "Hg10 mi
4:53 PM85 °FSunny.5 mph42%29.95 "Hg10 mi
3:53 PM84 °FSunny.5 mph43%29.96 "Hg10 mi
2:53 PM85 °FSunny.8 mph46%29.96 "Hg10 mi
1:53 PM84 °FSunny.3 mph48%29.98 "Hg10 mi
12:53 PM82 °FSunny.3 mph53%30.00 "Hg10 mi
11:53 AM80 °FSunny.No wind58%30.01 "Hg10 mi
10:53 AM77 °FSunny.5 mph66%30.01 "Hg10 mi
9:53 AM74 °FSunny.6 mph76%30.02 "Hg10 mi
8:53 AM68 °FSunny.6 mph90%30.01 "Hg10 mi
Weather by CustomWeather, © 2014

See weather overviewHow to use our weather pages